GFSWCAN_850_temp_132.txt.gz
Temp
4 3 3 5 6 6 6 6 6 6 6 6 6 6 6 6 6 6 7 7 7 7 8 9 9 9 10 10 10 12 13 14 14 16 17 17 17 18 18 19 18 18 16 16 14 16 18 20 20 19 16 16 17 16
2 2 2 3 5 5 5 5 6 6 6 6 5 5 6 6 5 5 6 6 6 6 8 10 10 10 10 10 10 12 12 13 14 13 13 14 17 15 15 18 18 18 17 16 16 15 17 19 19 20 19 18 17 16
2 2 2 2 2 3 4 5 5 6 6 6 5 4 5 5 5 5 5 6 6 6 8 9 12 12 12 13 12 10 12 14 14 15 13 13 16 15 16 17 19 18 17 16 17 18 17 16 17 18 19 19 17 16
2 2 2 2 2 2 3 3 4 5 6 5 5 4 4 5 5 5 5 6 6 6 6 9 12 13 13 13 12 13 13 13 14 14 14 12 14 17 16 16 16 16 17 16 16 14 14 14 17 18 18 18 18 16
2 2 2 2 2 2 2 3 3 3 5 5 4 3 4 4 5 5 5 6 6 6 6 7 10 14 15 14 14 13 12 12 13 14 13 13 15 16 14 14 16 17 17 16 16 18 17 15 17 18 18 17 17 16
2 2 2 2 2 2 2 2 2 3 4 5 4 4 4 4 5 5 6 7 7 6 6 7 9 15 15 15 15 14 12 13 12 14 14 17 17 17 14 14 17 19 20 19 20 20 21 19 18 17 18 17 16 16
2 1 1 1 2 1 2 2 2 3 3 4 3 4 4 4 5 5 6 7 7 7 6 7 6 13 15 16 14 14 13 14 12 12 14 16 17 16 14 14 18 21 21 20 20 20 16 17 17 17 18 16 16 16
2 2 1 1 1 1 2 2 2 3 3 3 4 4 4 5 5 6 7 6 6 6 6 7 8 12 15 15 14 15 14 14 14 12 15 15 17 15 13 16 19 21 21 20 20 21 21 19 19 18 17 16 16 16
2 2 1 1 1 2 2 2 2 3 3 4 4 5 5 5 5 6 7 7 6 6 6 8 9 9 14 14 15 16 16 13 15 12 14 14 12 12 14 16 19 20 20 21 20 20 20 19 19 18 18 16 15 15
2 1 1 1 3 3 2 2 2 3 3 4 4 5 5 6 6 6 6 6 6 6 6 6 8 8 13 13 11 12 12 12 12 13 16 13 11 17 19 19 19 19 20 21 21 20 18 17 18 18 17 17 16 17
1 1 2 2 3 3 2 2 3 4 4 4 4 5 6 6 6 6 7 6 7 7 7 7 8 8 13 10 10 10 10 10 12 12 12 11 13 16 18 19 21 20 20 20 20 21 21 20 18 18 17 17 18 18
2 2 3 3 3 3 3 3 4 4 4 4 5 6 6 6 6 7 8 8 7 9 10 9 11 10 12 12 10 10 10 10 10 11 12 12 12 18 18 19 19 20 20 20 20 21 21 21 21 20 19 18 18 18
2 2 3 3 4 3 3 3 4 4 4 5 5 5 6 7 6 8 9 9 9 10 11 11 11 13 12 12 10 8 10 10 11 11 12 11 15 19 19 19 19 20 20 20 20 20 21 20 21 21 20 20 19 18
2 3 3 3 4 3 3 4 4 4 4 5 5 4 6 7 8 9 9 8 10 10 10 11 12 11 11 10 9 11 11 10 11 11 12 12 15 16 16 18 18 19 19 20 20 20 21 20 21 21 21 20 20 18
3 3 3 4 3 3 4 4 4 4 4 4 5 5 6 8 9 10 8 9 10 10 11 10 11 11 10 10 9 11 11 11 12 13 11 15 15 15 15 18 18 18 19 19 20 20 20 21 20 21 20 20 20 19
3 3 3 4 3 4 4 4 4 4 4 4 5 6 7 7 8 10 10 9 9 9 9 10 9 10 11 10 11 12 13 14 13 12 15 15 15 16 17 17 18 18 19 19 20 20 20 20 20 20 20 20 20 20
3 3 3 4 4 4 4 4 4 4 4 5 5 6 6 7 7 10 11 11 11 10 9 10 11 12 10 11 12 13 12 10 11 15 15 15 16 16 17 18 18 17 17 18 19 19 19 20 20 20 20 20 20 20
3 3 3 4 3 4 4 4 4 4 5 5 5 7 8 9 10 10 11 11 11 11 12 11 11 10 11 12 12 11 13 13 13 14 15 16 16 16 17 17 16 17 17 17 18 18 19 20 20 20 20 20 19 19
3 3 3 3 4 4 4 4 4 4 6 6 7 7 8 10 11 12 12 12 11 11 11 11 10 9 10 11 11 13 14 13 14 15 15 15 15 15 15 15 16 16 16 16 17 18 18 19 19 19 20 20 19 19
3 3 3 3 3 4 4 4 4 4 6 9 10 10 10 11 12 12 12 12 11 11 10 9 9 12 13 13 14 15 14 14 14 14 14 15 15 15 16 16 16 16 16 16 17 17 17 18 18 18 18 19 18 18
3 4 4 3 3 4 4 5 5 6 8 9 10 10 11 11 11 12 12 12 11 10 9 12 12 13 13 14 14 14 14 14 14 13 13 14 15 15 15 15 15 15 15 15 15 17 17 16 17 17 17 18 19 19
3 4 3 3 4 4 4 5 6 8 8 9 10 11 11 10 11 11 12 11 11 11 12 12 13 13 14 14 15 14 14 14 14 14 14 14 14 14 14 13 13 12 13 14 15 15 15 16 17 17 16 15 16 14
3 4 4 4 4 4 5 6 7 8 8 10 11 10 10 10 11 11 11 11 12 12 13 13 13 14 14 14 14 14 14 14 14 14 14 14 14 13 13 14 14 14 14 14 15 16 15 15 16 17 16 16 14 11
3 3 4 4 5 4 6 8 9 10 10 9 9 11 10 10 11 11 10 11 12 12 13 13 13 14 14 14 14 14 13 13 13 12 12 13 13 13 13 14 13 14 15 15 15 15 14 14 15 14 14 15 15 14
3 4 4 4 5 5 7 9 9 9 10 10 11 9 9 9 9 10 10 10 11 12 13 13 13 13 13 14 14 14 13 13 12 12 12 13 13 12 12 12 12 12 13 14 14 14 14 13 14 14 14 14 14 14
3 5 4 6 8 8 9 9 10 9 9 11 10 10 9 10 10 10 10 11 11 12 13 12 13 13 13 14 13 13 13 12 13 14 13 13 14 13 12 11 12 12 12 11 11 12 13 14 14 13 14 14 14 13
3 6 6 7 7 8 8 9 10 9 10 10 9 10 10 9 10 11 12 12 12 13 12 12 13 14 13 12 12 13 13 13 13 13 13 13 13 13 12 12 12 12 12 12 11 11 12 13 12 12 12 12 12 12
5 6 7 8 7 8 8 9 9 9 9 9 9 10 10 10 11 13 13 13 13 13 12 12 13 13 13 13 13 14 14 14 14 13 13 13 13 13 13 13 13 13 13 12 12 12 12 12 11 10 11 10 11 11
6 7 7 7 8 9 9 9 8 9 9 9 10 11 12 13 13 13 13 14 13 13 13 13 13 13 13 13 13 13 14 14 14 14 13 13 13 13 13 13 13 13 13 13 13 13 13 12 12 11 11 11 10 10
7 7 7 7 8 8 8 8 8 9 10 11 12 13 13 13 13 14 14 14 14 13 14 13 13 13 13 13 13 13 13 13 13 13 13 12 12 12 13 13 13 13 13 13 13 12 12 12 11 11 11 10 10 10
7 7 7 8 9 10 10 10 9 9 11 13 13 14 13 13 13 13 13 14 14 14 13 13 13 14 14 13 13 13 12 12 12 12 12 13 13 13 13 12 13 13 13 12 12 12 12 12 12 12 11 11 11 11
7 7 8 10 11 11 11 11 11 11 12 13 13 14 14 14 14 14 14 14 14 14 14 14 14 14 14 14 13 12 12 12 12 12 12 12 12 12 12 12 12 12 12 12 12 11 11 11 11 11 11 10 10 10
11 11 12 12 11 11 11 11 11 11 12 12 13 13 14 14 13 14 14 14 14 14 14 14 14 14 14 13 13 12 12 12 11 11 11 11 11 11 11 11 11 11 11 11 10 10 10 10 10 10 10 10 10 9

GFSWCAN_850_temp_138.txt.gz
Temp
5 4 4 3 2 2 2 2 4 5 5 5 5 5 5 4 4 4 5 5 5 6 7 7 7 7 7 8 7 10 10 11 10 11 12 13 13 15 15 17 16 16 14 14 12 14 19 18 17 18 17 19 20 19
4 3 3 2 2 2 2 2 2 2 3 5 5 5 5 4 4 4 4 5 5 5 6 7 7 7 8 7 8 9 9 9 11 10 10 10 13 12 13 16 16 18 15 14 15 15 15 19 20 21 20 20 19 19
3 3 3 2 2 2 2 2 2 2 2 3 4 4 4 4 4 4 4 4 5 5 6 6 9 9 9 8 8 7 8 10 11 10 10 10 12 12 14 15 17 16 14 14 16 16 16 18 19 19 19 19 19 18
3 3 2 2 2 1 2 1 2 2 2 2 3 4 4 3 4 4 3 4 4 5 5 7 9 9 8 9 10 10 9 10 9 10 10 9 12 12 13 13 14 15 15 13 13 14 15 18 18 18 18 18 18 17
2 2 2 2 2 2 2 2 2 1 2 2 2 3 3 3 4 4 3 4 5 5 6 6 8 10 11 11 11 9 9 8 8 9 9 10 11 12 13 12 14 15 14 15 15 17 18 19 20 17 18 17 17 16
2 2 2 1 1 1 2 2 1 1 2 2 2 3 3 4 4 4 5 6 6 5 5 6 8 11 11 11 11 8 7 7 8 8 10 12 13 13 11 13 16 17 17 16 19 20 19 19 19 18 17 17 16 15
2 2 2 2 2 2 1 1 1 1 2 2 2 3 3 3 4 4 6 6 6 5 6 6 7 10 10 10 8 7 7 8 8 9 10 11 13 13 11 12 17 19 19 19 18 19 16 18 18 17 17 16 15 15
1 1 1 2 1 2 1 1 1 1 2 2 2 3 3 4 4 4 6 6 5 5 6 6 7 8 10 11 10 9 8 8 8 9 9 10 12 11 10 13 18 18 20 19 18 20 21 20 18 17 17 16 15 14
1 1 1 1 1 1 1 1 1 1 2 3 3 4 4 5 5 6 6 6 6 6 6 7 7 8 10 10 10 11 10 8 9 8 9 9 9 10 11 14 17 17 18 18 16 19 20 20 18 17 17 16 16 15
1 1 1 1 1 1 1 2 1 2 3 3 4 5 4 5 6 6 6 6 6 6 6 5 7 6 9 10 9 9 10 10 10 10 9 9 9 13 16 15 15 15 16 16 16 16 17 18 18 18 18 18 17 17
2 2 2 2 2 2 2 2 2 3 3 3 5 5 5 6 6 6 6 6 6 6 6 6 6 6 9 8 9 9 9 8 10 9 10 9 9 11 16 16 16 16 16 16 17 17 19 20 20 19 18 18 17 17
3 2 2 2 2 2 3 3 3 3 3 4 4 5 6 5 6 6 7 7 7 8 8 7 8 7 8 9 8 9 10 9 10 10 11 10 10 15 16 15 18 17 18 17 18 18 18 19 19 20 20 19 18 17
2 2 2 2 3 3 3 3 3 3 4 4 4 5 5 5 6 7 7 8 8 8 8 8 9 9 9 8 8 8 10 10 9 9 10 11 15 15 15 16 17 18 18 18 18 18 19 20 19 19 20 19 18 18
2 2 1 2 3 3 3 3 3 3 3 4 4 4 5 6 6 8 7 8 9 8 8 8 8 9 9 9 8 10 9 10 11 11 12 11 12 13 15 14 16 17 18 18 19 19 19 19 19 19 20 19 19 18
2 3 3 3 3 3 3 3 3 3 4 4 4 5 5 7 7 8 8 8 8 8 8 8 8 8 9 9 8 9 10 10 10 12 10 10 10 12 13 14 17 17 18 17 19 19 19 19 19 19 19 19 19 18
2 3 3 3 3 3 3 3 3 4 4 4 4 5 6 5 6 7 8 8 8 8 8 8 8 8 9 8 9 10 11 12 11 10 10 12 12 12 13 13 13 15 17 18 17 18 19 19 19 20 20 20 20 19
3 3 3 3 3 3 3 3 3 4 4 4 4 5 5 5 5 6 7 8 8 8 8 8 9 10 7 8 9 10 11 10 11 12 12 12 13 12 12 13 14 14 14 15 16 16 18 19 19 19 19 19 20 20
3 3 3 3 3 3 3 3 4 4 4 5 4 6 6 6 6 7 8 9 8 9 8 9 9 9 9 10 10 9 11 12 13 14 14 13 13 14 14 15 15 15 14 14 15 16 17 17 18 18 18 19 19 19
2 3 3 3 3 3 3 3 4 4 5 5 5 6 6 6 8 9 10 10 9 8 9 9 8 7 7 8 9 11 11 12 12 13 14 14 14 14 14 14 14 15 15 16 16 17 16 17 18 18 18 19 19 19
3 3 3 3 3 4 4 4 4 4 4 5 6 6 6 8 9 10 10 10 9 9 9 9 8 9 10 12 12 12 12 12 12 12 13 14 14 14 14 14 15 15 15 16 16 16 17 17 17 18 18 18 18 19
3 3 3 3 3 3 4 4 4 4 5 5 7 7 8 8 8 9 10 10 9 9 7 11 12 13 12 12 12 12 13 13 13 13 13 13 13 13 13 13 13 14 14 15 15 15 16 16 17 17 17 18 18 18
3 3 3 3 3 4 4 4 5 5 5 6 7 8 8 8 9 9 9 8 9 11 11 12 12 12 12 12 12 12 13 13 13 13 13 13 13 13 13 13 13 13 13 13 14 14 14 15 16 16 16 17 17 17
3 3 3 3 3 4 5 4 4 6 6 7 7 7 7 8 9 9 8 9 10 11 11 12 12 12 12 13 13 14 14 14 13 13 13 13 12 12 12 12 12 12 13 13 13 13 14 14 15 15 15 15 15 15
3 4 3 4 4 4 5 5 5 6 7 6 7 9 9 9 9 8 8 9 11 11 11 12 12 12 13 13 14 13 13 12 12 12 12 11 12 12 12 12 12 11 11 12 12 13 13 13 13 13 13 13 13 13
3 3 3 3 4 4 4 6 6 6 7 8 8 8 8 8 8 9 9 10 11 11 11 11 12 12 13 13 13 13 12 12 12 11 11 12 12 11 11 11 11 11 11 11 11 12 12 12 12 12 12 12 12 13
3 4 3 5 5 5 7 7 8 8 8 8 8 8 8 8 9 9 9 10 10 11 11 11 11 12 12 12 12 12 12 12 12 12 12 12 12 12 12 12 12 11 11 11 11 11 11 12 11 12 12 12 12 12
3 4 5 5 5 5 6 7 7 7 8 8 8 8 8 8 8 9 10 10 10 11 11 12 12 12 12 12 12 12 12 13 13 13 12 12 12 12 12 12 12 11 11 11 11 11 11 11 11 11 11 11 11 11
4 5 4 6 5 6 6 7 8 8 7 7 7 8 8 9 9 10 10 10 11 11 11 11 12 12 13 13 13 13 13 13 13 13 13 12 12 12 12 12 12 12 12 12 12 11 11 11 11 11 10 11 10 10
4 5 5 6 6 6 7 7 7 7 7 7 8 9 10 11 12 11 11 11 12 12 12 12 12 12 13 13 14 13 13 13 13 13 13 12 13 13 13 12 12 12 12 12 12 12 12 12 11 11 11 11 11 11
5 6 6 7 7 7 8 8 7 7 7 8 9 10 11 12 12 12 13 12 12 12 12 13 13 12 12 12 12 12 12 12 12 12 12 12 12 12 12 13 12 12 12 12 12 11 11 11 11 11 10 10 10 10
6 6 6 6 7 7 7 8 8 9 9 11 11 11 12 12 12 12 13 13 13 12 13 13 12 12 12 12 12 13 12 11 11 11 11 11 11 11 11 11 11 11 11 11 11 11 11 11 11 10 10 10 9 9
6 6 6 7 7 9 9 10 10 10 11 11 11 12 13 13 13 13 13 13 13 13 13 13 13 13 13 13 12 12 12 11 11 11 10 10 10 9 9 9 10 10 10 10 10 9 9 9 10 9 9 9 9 8
6 6 6 7 9 10 10 10 10 11 12 12 12 11 11 12 12 13 13 13 14 14 13 13 13 13 12 12 12 12 11 11 11 10 10 9 8 8 8 8 8 8 8 8 8 7 7 7 7 6 6 6 6 6

GFSWCAN_850_temp_141.txt.gz
Temp
4 4 4 4 3 2 2 2 2 2 2 3 4 5 5 4 4 4 4 5 5 5 6 7 7 7 7 8 8 10 12 12 13 14 14 17 17 19 19 19 19 20 20 20 18 20 21 20 20 23 23 20 20 19
3 4 4 3 2 2 2 2 2 1 2 2 3 3 5 4 3 4 4 4 5 4 6 6 6 7 6 7 8 8 10 9 11 13 13 13 16 17 20 19 17 19 22 20 21 23 19 19 21 20 20 20 19 20
3 3 3 3 2 2 1 2 2 2 2 2 2 2 3 4 3 4 4 4 4 4 5 5 8 8 8 8 8 7 8 9 10 10 11 12 12 15 18 18 18 18 15 19 19 20 19 19 17 19 19 20 20 19
3 3 3 3 2 2 2 2 2 2 1 1 2 2 3 3 3 4 4 4 4 4 5 8 8 8 8 7 8 7 8 8 8 9 11 10 13 13 16 17 17 18 16 17 19 17 17 17 17 18 19 19 19 18
3 3 3 2 2 2 1 2 2 2 1 1 2 2 3 3 3 3 3 4 4 4 6 7 8 9 9 8 7 8 7 7 7 9 10 12 13 13 15 15 16 17 18 18 22 19 21 20 17 18 19 18 18 18
2 2 2 2 2 2 2 2 2 1 1 2 2 2 3 3 3 4 5 6 5 5 5 7 8 9 9 9 8 7 6 6 7 8 11 11 12 12 14 17 18 17 17 17 17 17 19 19 19 19 18 18 17 17
2 1 1 2 2 2 2 2 2 1 1 2 2 2 2 3 3 4 5 5 5 5 6 7 8 9 8 8 6 6 6 7 7 8 8 9 11 12 15 16 18 17 17 17 17 17 15 16 17 18 18 17 16 16
1 1 1 1 2 2 2 2 1 1 1 2 2 3 3 3 3 4 5 5 5 5 5 6 9 9 9 9 9 7 7 8 8 8 8 9 10 12 14 16 17 17 18 17 17 18 18 18 18 17 17 16 15 15
1 1 1 1 1 1 1 1 1 1 1 2 3 4 4 4 5 5 5 5 5 6 6 7 9 8 9 9 10 9 9 9 8 8 8 9 10 11 15 14 14 17 17 16 17 18 17 17 18 17 17 15 14 14
2 2 2 2 1 1 1 1 1 1 2 3 3 4 4 5 5 6 6 6 5 6 6 6 7 8 9 9 9 9 10 9 10 10 9 10 11 13 15 15 16 15 17 17 16 16 17 16 17 17 18 17 15 16
2 2 2 2 2 2 2 2 2 2 3 3 4 5 5 5 6 6 6 6 7 7 6 7 7 8 8 9 9 9 10 10 11 11 11 12 12 13 15 15 16 16 15 16 16 16 17 17 18 19 18 17 16 16
3 3 2 2 2 2 3 3 3 3 3 4 4 5 5 5 6 7 8 8 7 9 7 7 7 6 7 8 9 9 11 11 12 9 11 12 14 12 12 13 15 17 17 17 16 17 18 17 18 19 18 18 17 17
3 2 2 2 2 3 3 3 3 3 3 4 4 4 5 5 5 7 8 9 9 8 7 7 8 8 8 7 8 10 12 12 10 12 13 14 12 11 11 12 14 17 17 17 17 17 17 18 18 18 18 18 18 17
3 2 2 2 3 3 3 3 3 3 3 4 4 4 6 7 8 9 9 9 9 8 8 8 8 9 9 9 10 12 12 12 12 13 13 13 11 10 11 12 13 16 17 18 18 18 18 18 19 18 18 19 18 18
3 3 3 3 3 3 3 3 3 3 4 4 4 5 7 7 7 7 8 7 8 8 7 7 8 9 10 10 10 11 12 12 13 12 10 11 10 10 11 10 15 17 17 17 18 18 18 19 18 19 19 19 18 18
3 3 3 3 3 3 3 3 3 3 4 3 3 5 7 6 8 7 7 7 7 7 7 7 8 9 9 11 11 12 13 12 11 10 11 11 11 11 12 12 11 14 16 18 18 18 19 19 19 19 19 19 19 19
3 3 3 3 3 3 3 3 4 4 4 4 4 4 5 6 6 7 6 7 7 7 8 8 9 11 10 11 12 13 12 11 11 11 11 11 11 12 13 12 13 13 15 16 17 18 19 19 19 19 19 19 19 20
3 3 3 3 3 3 3 3 4 4 5 5 5 6 5 5 6 6 7 8 8 8 8 9 8 10 11 12 13 12 11 11 11 12 12 12 12 12 12 12 13 13 14 14 14 15 17 18 18 19 19 19 19 19
2 2 3 3 3 3 3 3 4 4 5 5 5 5 5 6 7 8 7 8 8 7 8 8 10 11 11 11 12 11 11 11 11 12 13 13 13 13 13 13 14 13 14 15 15 15 16 16 17 17 18 19 19 19
3 3 3 3 3 3 4 4 4 3 4 5 5 5 5 7 8 8 9 9 8 8 9 10 11 11 11 12 12 12 12 12 12 11 13 13 13 13 13 13 13 13 13 14 15 15 15 16 16 17 17 18 18 19
2 3 3 3 3 3 3 4 4 4 5 5 6 6 7 7 7 8 8 9 8 9 11 11 11 12 12 12 12 12 12 12 12 12 12 13 12 12 12 13 13 13 13 13 14 14 14 14 15 15 16 16 16 17
3 3 3 3 3 3 3 4 4 5 4 6 6 6 7 8 8 8 8 8 9 10 10 11 11 12 12 12 12 12 12 12 12 12 12 12 12 12 12 13 13 12 13 13 13 13 14 14 14 15 15 15 16 16
2 3 3 3 3 4 5 4 4 5 6 7 7 8 8 8 8 8 9 9 10 11 11 11 11 11 12 12 12 12 13 12 12 12 12 12 11 12 12 12 12 12 11 12 12 12 13 13 14 14 14 14 14 14
3 3 3 3 3 4 4 5 4 5 6 8 8 9 10 9 9 9 10 10 11 11 11 11 11 12 12 12 12 12 12 11 11 11 11 11 11 11 11 11 11 11 11 11 12 12 12 13 13 13 13 13 13 13
3 3 3 3 4 4 6 6 7 7 8 9 9 10 9 9 8 10 11 10 10 10 10 11 11 11 11 11 12 11 11 11 12 11 11 11 11 11 11 11 11 11 11 11 11 11 11 12 12 12 12 12 12 12
3 4 3 5 6 6 7 7 8 7 8 8 9 8 7 8 9 9 10 10 11 11 10 11 11 11 11 11 11 11 11 11 11 12 12 12 11 11 11 11 11 10 11 11 11 11 11 11 11 12 11 11 11 11
3 5 4 5 5 5 6 7 7 7 8 8 8 7 8 8 9 9 10 10 10 10 11 11 11 11 11 11 11 12 12 12 12 12 12 12 12 12 12 12 12 11 11 11 11 11 11 11 11 11 11 11 10 10
4 4 5 6 5 5 6 7 7 7 7 7 7 8 8 8 9 8 9 10 10 11 11 12 12 12 12 13 13 13 12 12 12 12 12 12 12 12 12 12 12 12 12 12 12 12 12 11 11 11 11 11 11 10
3 4 4 5 5 6 6 7 7 6 6 6 7 9 8 8 8 9 10 11 11 12 12 12 12 12 13 12 12 11 11 12 12 12 12 11 12 12 12 12 12 12 12 11 12 12 12 11 11 11 11 10 10 10
4 5 5 6 7 7 7 7 7 7 7 7 7 9 9 9 9 11 11 11 12 12 12 12 12 12 11 12 12 12 11 11 11 11 10 10 10 10 10 10 10 11 11 11 11 11 11 10 10 10 10 10 10 9
6 6 6 6 6 7 6 6 7 8 8 9 10 10 11 10 10 11 12 12 13 13 12 12 12 12 12 11 11 11 11 11 10 10 10 10 9 9 9 9 9 9 10 10 10 10 9 10 10 9 9 9 9 9
6 6 6 6 6 7 8 9 9 10 11 11 12 12 12 11 11 11 12 12 13 13 13 12 12 12 12 12 11 11 11 10 10 9 9 9 8 8 8 8 8 8 8 8 8 8 8 8 7 7 6 6 6 6
5 6 6 6 7 9 10 10 11 11 11 11 11 13 13 12 12 12 12 13 13 13 13 12 12 12 12 12 11 11 10 10 9 9 8 8 8 8 7 7 6 6 6 6 5 5 5 5 5 5 5 5 5 5

GFSWCAN_850_temp_144.txt.gz
Temp
4 4 4 4 4 3 3 2 2 2 2 2 2 3 4 4 4 4 5 5 5 7 8 8 9 10 11 11 13 14 15 15 16 16 18 19 20 23 22 24 21 22 23 23 24 25 25 26 25 25 27 26 25 25
4 4 4 4 3 3 2 2 2 2 2 2 2 2 3 4 4 4 5 5 5 5 7 8 8 8 9 9 10 10 14 13 14 15 16 17 17 21 22 22 21 22 23 24 25 25 24 25 27 25 25 25 24 23
4 4 3 3 3 3 2 2 2 2 2 2 2 2 3 3 3 4 5 5 4 5 7 9 10 10 9 8 9 10 12 12 13 12 14 15 15 18 21 22 22 21 19 21 22 23 24 24 22 23 23 24 22 23
4 3 3 3 3 2 2 2 2 2 2 2 1 2 2 3 3 4 4 4 4 5 7 12 9 9 10 10 9 9 10 10 10 10 9 12 14 16 18 20 22 22 19 22 22 20 21 23 22 22 21 21 20 20
3 3 3 3 2 2 2 2 2 2 2 2 1 2 2 3 3 3 4 4 4 4 8 10 9 11 10 9 9 9 10 10 9 9 11 10 11 12 17 19 21 22 23 22 24 20 22 23 21 20 20 20 19 19
3 3 2 2 2 2 2 2 2 2 2 1 2 2 3 3 3 4 6 5 5 4 4 8 12 10 10 9 9 9 10 10 8 11 14 14 13 11 12 17 22 20 19 19 21 19 20 23 21 19 20 19 18 18
2 1 1 1 2 2 2 2 2 2 1 1 2 2 3 3 3 4 6 5 5 4 5 8 12 9 9 9 9 10 10 9 9 10 12 13 14 13 12 15 21 19 18 18 17 17 19 19 19 19 19 18 17 17
2 1 1 1 1 1 1 2 2 2 2 1 2 3 3 4 4 4 5 5 5 5 5 8 12 10 9 10 9 8 9 8 8 10 9 10 10 11 13 18 18 18 18 18 17 18 20 19 18 18 18 17 17 17
2 2 2 2 2 2 2 2 2 1 1 2 3 3 4 4 4 5 5 5 6 6 8 10 11 9 9 9 10 10 10 9 9 9 10 9 10 10 14 17 17 17 19 17 17 18 18 18 18 17 17 17 17 17
2 2 2 2 2 2 2 2 2 2 2 3 3 4 5 5 5 5 5 6 5 6 6 10 11 12 11 8 9 9 9 11 11 12 9 9 12 13 14 15 16 16 16 19 17 19 18 19 18 18 17 18 18 17
2 2 3 3 2 2 2 2 2 2 3 3 4 6 5 5 6 6 7 7 8 8 8 9 9 11 10 12 11 8 9 10 12 13 11 13 13 15 15 15 15 15 16 16 17 18 18 19 19 18 18 17 17 16
3 3 3 2 2 2 2 2 3 3 3 4 4 5 5 5 6 8 10 10 10 10 8 7 8 6 8 9 10 11 12 13 14 13 10 14 15 13 14 14 14 15 16 16 16 16 17 18 19 18 18 17 17 16
3 3 2 2 2 2 3 3 3 3 3 4 4 5 6 7 8 9 10 11 10 8 7 8 8 8 9 8 10 13 14 14 14 14 14 14 12 13 13 13 13 15 16 17 17 17 17 17 18 17 17 17 17 16
3 3 3 3 3 3 3 3 3 3 4 4 5 6 7 9 11 12 12 11 9 9 9 9 9 10 10 11 13 14 15 15 15 14 13 13 10 12 12 13 13 15 16 17 16 17 16 16 17 17 17 16 16 16
3 3 3 3 3 3 3 3 3 3 4 4 5 7 9 10 10 11 8 9 9 8 7 8 9 10 12 12 14 14 15 15 15 11 10 11 11 11 12 12 13 13 15 16 16 16 17 17 18 18 17 17 17 16
3 3 3 3 3 3 3 3 3 4 4 4 4 8 9 10 11 11 10 9 8 7 7 6 9 9 10 14 14 14 15 13 13 11 11 10 10 10 11 11 12 13 13 15 15 16 17 18 18 18 16 16 17 17
3 3 3 3 3 3 3 3 3 4 4 5 8 8 8 9 10 10 10 8 7 7 8 9 10 12 13 13 14 15 13 12 11 11 11 11 11 11 11 12 12 12 13 15 17 16 17 17 16 19 16 16 16 16
3 2 3 3 3 3 3 3 4 4 6 8 9 10 9 9 9 9 9 8 7 8 8 8 10 12 14 14 14 14 13 12 12 12 12 13 12 12 12 12 13 13 14 14 14 14 15 15 16 16 17 16 15 16
3 3 3 2 3 3 3 4 4 5 7 8 9 9 9 9 9 9 9 9 8 7 7 8 11 13 15 15 15 14 13 13 14 14 14 13 13 13 12 13 14 14 13 14 14 14 15 14 16 16 17 17 16 17
3 3 3 3 3 3 3 4 4 5 7 8 8 8 9 10 10 10 10 10 9 9 10 11 13 15 15 13 13 13 13 13 13 14 13 12 12 13 12 12 12 14 14 15 14 14 14 15 16 15 16 16 17 18
3 3 3 3 3 3 3 4 4 5 6 6 7 8 9 10 10 10 11 10 10 12 14 14 14 14 13 13 13 13 12 12 12 13 12 12 12 12 13 13 13 13 13 14 14 15 14 14 14 14 14 15 15 15
3 3 3 3 3 4 4 5 5 6 7 9 9 9 10 11 11 11 10 10 12 13 13 13 14 13 13 13 13 12 12 11 11 12 12 12 12 13 13 13 13 14 14 14 13 13 13 13 13 13 13 14 15 15
2 3 3 3 4 4 5 5 6 7 8 10 9 9 10 11 10 9 11 13 13 13 12 12 12 11 11 12 11 11 11 12 12 12 11 12 12 12 13 12 12 12 13 13 12 12 12 13 12 12 13 13 14 14
2 3 3 3 4 5 6 7 7 7 8 9 10 11 12 11 10 11 13 13 13 12 11 11 11 11 12 12 12 11 12 12 12 11 11 12 12 11 12 12 12 11 11 11 12 12 12 12 12 12 12 13 13 14
3 3 4 3 4 5 8 9 9 9 9 10 11 11 11 10 11 12 13 13 11 11 11 11 12 12 12 12 10 11 11 10 11 11 11 11 11 11 11 11 11 10 10 11 11 11 12 12 12 12 11 12 12 13
3 5 3 7 7 8 8 8 7 7 9 10 10 9 8 8 9 12 12 11 11 11 10 10 11 12 12 11 11 11 11 11 11 12 11 11 11 11 12 11 11 11 10 10 10 11 11 11 11 11 11 11 11 12
5 6 6 6 7 6 7 8 8 9 9 8 8 7 7 8 10 11 10 10 10 9 10 10 11 11 11 11 12 12 11 11 11 11 11 11 11 11 12 12 11 11 11 11 11 11 10 10 10 10 10 11 10 11
5 6 7 7 7 7 7 7 7 8 8 6 6 8 8 8 9 9 9 10 10 9 10 10 9 10 11 11 11 11 11 11 12 12 12 12 11 11 11 11 11 12 12 11 11 12 11 11 11 11 11 10 10 10
5 5 5 7 7 5 6 6 7 6 6 6 6 7 8 8 8 9 10 11 11 11 10 10 10 11 11 11 11 11 12 13 12 12 13 12 11 11 11 11 11 11 11 11 11 11 11 11 11 11 10 10 10 10
6 5 6 7 8 8 8 7 6 7 6 5 6 7 8 8 10 11 11 11 12 12 12 12 12 11 11 11 11 11 11 11 11 11 11 11 10 10 10 10 10 10 10 10 10 10 10 10 10 10 10 9 9 10
6 5 5 6 6 6 6 6 6 6 7 8 8 9 9 10 10 10 10 11 12 13 13 13 13 13 13 13 12 11 10 10 9 9 9 10 9 9 9 9 9 9 9 9 9 9 9 9 8 8 8 7 7 7
5 5 6 6 6 8 7 8 9 10 10 11 11 12 12 12 12 12 11 12 13 13 12 12 12 12 11 11 10 10 9 9 8 8 8 8 8 7 8 8 8 8 8 7 7 7 7 7 7 7 7 6 6 6
5 5 5 5 7 9 10 10 12 12 12 12 11 12 13 14 13 12 12 12 13 13 12 12 11 11 11 11 10 10 9 9 8 8 8 8 8 6 7 7 6 6 6 6 6 6 5 5 5 5 5 5 5 4

GFSWCAN_850_temp_147.txt.gz
Temp
6 5 5 5 4 4 4 3 3 2 2 2 2 2 3 4 5 4 6 6 7 9 11 12 12 12 14 14 16 18 17 18 19 19 20 19 20 22 22 24 24 23 22 23 21 23 25 28 28 28 28 28 28 28
5 4 4 4 4 4 3 3 2 2 3 2 2 2 3 3 4 4 5 5 6 6 9 10 10 11 11 12 13 15 16 16 16 15 16 16 17 20 22 22 21 22 25 25 25 26 26 23 28 28 28 27 27 26
4 4 4 4 4 3 3 3 3 2 2 2 2 2 2 3 3 4 5 5 6 7 9 11 13 13 12 11 12 13 15 16 15 13 15 15 16 19 17 19 22 21 25 26 24 25 26 26 27 27 27 27 26 26
4 4 4 4 3 3 3 3 2 2 2 2 2 2 2 2 3 3 4 5 5 6 9 14 13 12 12 12 12 12 12 13 12 13 13 15 15 16 17 18 16 16 22 25 24 24 23 24 26 26 26 25 25 24
4 4 4 3 3 3 3 2 2 2 2 2 2 2 2 3 3 3 4 5 5 5 10 11 11 13 13 13 13 12 12 12 13 12 13 14 15 14 18 18 16 18 22 24 24 24 23 23 25 25 24 24 23 23
4 4 3 2 2 2 2 2 2 2 2 2 2 2 2 3 3 4 6 5 5 5 5 10 12 13 12 12 12 13 13 12 12 11 12 13 14 14 15 16 18 18 16 21 24 22 22 21 23 23 23 23 22 22
3 3 2 2 2 2 2 2 2 2 2 2 2 2 2 3 3 4 5 5 5 5 4 7 13 12 11 11 13 13 13 11 11 11 13 15 13 12 13 16 18 15 12 20 21 20 20 22 24 23 22 22 20 21
3 3 2 2 2 2 2 2 2 2 2 2 2 3 3 3 4 5 6 5 5 4 5 9 13 11 10 10 12 12 12 10 10 12 12 14 15 14 15 17 17 14 13 15 20 21 23 23 23 22 21 20 21 20
3 2 2 2 2 2 2 2 2 2 2 2 3 3 4 4 4 6 6 5 6 5 7 11 12 12 11 11 9 10 11 10 11 12 14 13 13 11 15 14 15 15 14 18 20 20 22 22 21 21 21 20 21 20
3 2 2 2 2 2 2 2 2 2 2 3 4 4 6 6 6 6 6 6 6 6 7 12 14 14 12 10 9 8 9 11 12 14 13 12 14 15 15 14 15 16 18 18 19 20 21 21 21 21 21 20 20 20
2 2 3 3 3 3 2 3 3 3 3 3 5 6 6 6 6 6 7 8 8 10 11 12 11 12 12 13 12 9 8 9 12 14 13 13 12 13 14 14 16 16 17 18 19 19 20 21 21 20 20 20 20 19
2 3 2 2 3 2 2 3 3 3 3 4 5 5 6 7 7 7 9 12 12 13 11 11 9 8 9 10 13 10 11 10 13 14 14 14 12 13 14 15 16 17 17 18 18 18 18 19 21 21 20 20 19 19
3 3 3 3 3 3 3 3 3 3 4 4 4 7 8 8 8 10 13 13 12 11 9 9 9 9 10 12 13 13 13 15 15 14 14 13 12 12 14 14 15 16 17 18 18 18 18 18 19 20 20 20 19 18
3 3 3 3 3 3 3 3 3 4 4 4 7 6 9 10 12 14 12 11 10 11 9 9 9 10 11 11 13 14 16 18 16 15 12 12 13 12 12 12 14 16 17 18 18 18 18 18 18 19 20 19 19 18
3 3 3 3 3 3 3 3 3 4 4 5 7 8 11 13 13 13 12 12 10 10 10 10 11 11 12 12 14 16 16 16 14 14 12 10 10 10 11 12 13 15 17 18 18 18 18 18 18 19 19 19 19 18
3 3 3 3 3 3 3 3 4 4 4 5 7 10 11 11 12 12 12 11 9 9 8 7 9 10 13 14 15 16 15 14 14 13 11 11 11 11 11 12 12 14 15 18 18 18 18 18 17 17 18 18 18 18
3 3 3 3 3 3 3 3 4 4 6 8 9 11 11 12 13 12 12 12 9 8 8 9 10 12 15 14 15 16 15 13 11 11 11 12 12 12 12 12 12 13 14 16 16 16 17 17 17 17 17 18 19 17
3 3 3 3 3 4 4 4 4 6 8 9 10 11 12 13 12 12 12 12 11 9 8 10 10 12 14 15 15 15 14 13 13 13 13 12 12 13 13 12 12 12 13 14 16 16 16 17 17 17 17 16 16 16
3 3 3 2 3 3 4 5 5 8 9 10 9 11 12 13 12 12 12 12 11 9 9 10 11 14 14 15 15 15 16 16 16 16 14 13 13 13 13 13 13 13 13 14 15 16 16 17 17 18 17 17 17 17
3 3 3 3 3 3 4 6 6 7 9 10 10 10 10 10 12 12 13 12 12 10 10 12 15 15 15 16 15 15 15 15 14 15 14 13 13 13 14 14 14 14 13 14 15 15 16 17 17 18 18 18 18 18
3 3 3 3 3 3 5 6 7 7 9 9 10 10 10 11 12 13 13 13 12 13 14 15 15 16 16 15 15 15 15 14 14 14 14 14 13 15 15 16 15 15 16 15 15 15 15 16 16 16 17 17 18 18
3 3 3 4 4 4 6 7 7 8 8 10 11 11 11 12 12 13 13 14 14 15 15 16 16 15 15 15 15 14 14 13 13 14 13 13 13 14 14 15 16 15 15 15 16 16 16 16 15 15 16 16 16 17
3 3 3 3 5 5 6 7 7 9 10 11 10 11 12 12 12 11 13 15 15 16 16 15 14 13 13 14 14 13 13 13 13 13 13 15 15 14 14 14 15 15 13 13 14 15 15 14 14 15 15 15 16 15
3 3 3 5 5 6 8 8 9 10 10 11 11 12 13 12 12 12 15 16 15 15 15 13 13 13 13 13 12 12 12 12 12 12 12 12 12 12 12 13 14 14 13 12 13 13 14 15 14 15 15 15 16 16
3 4 3 3 4 7 9 10 10 10 10 11 12 12 12 12 13 14 15 13 13 12 12 12 12 12 12 11 11 11 10 11 11 11 12 12 13 13 12 12 11 11 11 12 12 12 12 13 13 13 13 14 14 15
5 6 4 9 9 10 10 9 7 7 9 11 12 11 10 10 12 13 13 11 11 11 11 11 12 11 11 11 12 11 10 11 11 12 13 14 14 13 12 12 11 11 11 11 11 11 11 11 11 12 12 12 12 12
5 8 8 8 9 9 10 10 10 11 11 11 11 9 8 9 11 12 10 9 10 10 11 11 11 11 11 11 11 11 12 11 12 13 13 14 14 13 13 13 12 12 12 12 12 12 11 12 12 11 11 11 11 11
7 7 8 8 8 9 9 9 8 8 9 7 7 8 8 9 10 9 9 8 10 9 10 10 10 11 10 11 11 12 12 13 13 14 14 14 14 14 13 13 12 12 12 12 13 13 13 13 13 13 13 13 12 12
7 7 7 8 8 8 7 7 7 7 6 6 6 7 7 7 8 8 10 10 9 9 10 11 10 11 11 11 12 13 14 14 14 14 14 14 14 13 14 13 12 11 11 11 11 12 12 12 12 11 11 11 11 11
8 8 8 8 9 9 9 6 6 6 6 6 5 5 6 8 10 11 11 12 11 11 10 10 10 11 11 11 13 13 13 12 13 13 13 13 13 12 12 12 11 12 12 12 12 11 10 10 10 10 10 10 10 10
7 6 5 5 6 6 6 6 6 6 6 6 6 7 9 10 11 13 14 14 13 13 13 13 12 13 14 14 13 13 12 11 10 10 11 12 11 11 11 11 11 11 11 11 11 10 11 11 11 11 10 9 9 8
5 5 6 5 5 6 7 7 8 9 8 9 9 11 13 14 13 14 14 15 15 14 14 14 14 13 13 12 11 10 9 8 8 9 9 10 10 10 10 10 10 10 10 9 9 9 9 9 8 8 9 8 8 7
5 6 6 6 6 8 10 11 12 12 12 12 12 14 14 15 14 14 13 14 14 14 14 14 13 12 11 10 9 9 9 9 9 9 9 8 8 8 9 9 9 9 9 8 8 8 7 7 7 7 7 7 6 6